When you browse on this site, cookies collect data to enhance your experience and personalize the content and advertising you see.
Visit our Privacy Policy to learn more. By continuing to use the site, you agree to this use of cookies and data.
  • In Slovakia
  • List of Countries
  • For 7 days
  • Water Temperature
  • Weather Map
  • Weather Widgets
  • user-avatar
    Login

    Hourly Weather Tibissa

    Today, 29 May, Friday

    Time Temperature Precipitation Wind Pressure Humidity
    00:00 +19°C° 0 mm 4 mps 688 mmHg 45%
    01:00 +19°C° 0 mm 4 mps 687 mmHg 47%
    02:00 +18°C° 0 mm 4 mps 687 mmHg 49%
    03:00 +17°C° 0 mm 3 mps 687 mmHg 51%
    04:00 +17°C° 0 mm 3 mps 686 mmHg 53%
    05:00 +18°C° 0 mm 3 mps 687 mmHg 51%
    06:00 +18°C° 0 mm 4 mps 687 mmHg 50%
    07:00 +19°C° 0 mm 4 mps 687 mmHg 49%
    08:00 +20°C° 0 mm 5 mps 687 mmHg 47%
    09:00 +21°C° 0 mm 6 mps 687 mmHg 46%
    10:00 +22°C° 0 mm 6 mps 687 mmHg 44%
    11:00 +22°C° 0 mm 7 mps 687 mmHg 45%
    12:00 +22°C° 0 mm 9 mps 686 mmHg 46%
    13:00 +23°C° 0 mm 10 mps 686 mmHg 47%
    14:00 +23°C° 0.1 mm 9 mps 686 mmHg 45%
    15:00 +23°C° 0.1 mm 7 mps 686 mmHg 44%
    16:00 +23°C° 0.1 mm 6 mps 685 mmHg 42%
    17:00 +22°C° 1.6 mm 5 mps 685 mmHg 50%
    18:00 +21°C° 1.6 mm 4 mps 684 mmHg 58%
    19:00 +19°C° 1.6 mm 3 mps 683 mmHg 66%
    20:00 +19°C° 0.1 mm 2 mps 684 mmHg 65%
    21:00 +19°C° 0.1 mm 2 mps 684 mmHg 64%
    22:00 +19°C° 0.1 mm 2 mps 684 mmHg 63%
    23:00 +19°C° 0.2 mm 2 mps 684 mmHg 64%

    Tomorrow, 30 May, Saturday

    Time Temperature Precipitation Wind Pressure Humidity
    00:00 +19°C° 0.2 mm 2 mps 684 mmHg 65%
    01:00 +18°C° 0.2 mm 2 mps 683 mmHg 66%
    02:00 +18°C° 0.4 mm 2 mps 683 mmHg 67%
    03:00 +18°C° 0.4 mm 2 mps 683 mmHg 69%
    04:00 +18°C° 0.4 mm 2 mps 683 mmHg 70%
    05:00 +18°C° 0.3 mm 2 mps 683 mmHg 68%
    06:00 +19°C° 0.3 mm 2 mps 683 mmHg 65%
    07:00 +19°C° 0.3 mm 2 mps 683 mmHg 63%
    08:00 +20°C° 0.1 mm 2 mps 684 mmHg 59%
    09:00 +21°C° 0.1 mm 3 mps 684 mmHg 55%
    10:00 +22°C° 0.1 mm 4 mps 684 mmHg 51%
    11:00 +23°C° 0.5 mm 4 mps 684 mmHg 50%
    12:00 +23°C° 0.5 mm 4 mps 684 mmHg 48%
    13:00 +25°C° 0.5 mm 4 mps 684 mmHg 46%
    14:00 +25°C° 0.3 mm 4 mps 684 mmHg 44%
    15:00 +25°C° 0.3 mm 4 mps 684 mmHg 43%
    16:00 +25°C° 0.3 mm 4 mps 684 mmHg 41%
    17:00 +25°C° 0 mm 5 mps 684 mmHg 42%
    18:00 +23°C° 0 mm 5 mps 683 mmHg 43%
    19:00 +22°C° 0 mm 6 mps 683 mmHg 44%
    20:00 +21°C° 0 mm 5 mps 684 mmHg 52%
    21:00 +20°C° 0 mm 5 mps 684 mmHg 60%
    22:00 +18°C° 0 mm 4 mps 684 mmHg 68%
    23:00 +18°C° 0 mm 3 mps 684 mmHg 70%

    Day after tomorrow, 31 May, Sunday

    Time Temperature Precipitation Wind Pressure Humidity
    00:00 +17°C° 0 mm 2 mps 684 mmHg 71%
    01:00 +17°C° 0 mm 2 mps 684 mmHg 73%
    02:00 +16°C° 0 mm 1 mps 684 mmHg 74%
    03:00 +16°C° 0 mm 1 mps 684 mmHg 74%
    04:00 +16°C° 0 mm 1 mps 684 mmHg 75%
    05:00 +16°C° 0 mm 1 mps 684 mmHg 71%
    06:00 +18°C° 0 mm 1 mps 684 mmHg 68%
    07:00 +18°C° 0 mm 1 mps 684 mmHg 64%
    08:00 +20°C° 0 mm 1 mps 685 mmHg 58%
    09:00 +21°C° 0 mm 1 mps 685 mmHg 52%
    10:00 +23°C° 0 mm 1 mps 686 mmHg 46%
    11:00 +24°C° 0 mm 2 mps 686 mmHg 40%
    12:00 +26°C° 0 mm 3 mps 686 mmHg 35%
    13:00 +28°C° 0 mm 4 mps 686 mmHg 29%
    14:00 +28°C° 0 mm 4 mps 686 mmHg 28%
    15:00 +29°C° 0 mm 5 mps 686 mmHg 27%
    16:00 +29°C° 0 mm 5 mps 685 mmHg 26%
    17:00 +29°C° 0 mm 4 mps 685 mmHg 27%
    18:00 +28°C° 0 mm 4 mps 685 mmHg 28%
    19:00 +27°C° 0 mm 4 mps 685 mmHg 30%
    20:00 +26°C° 0 mm 4 mps 685 mmHg 33%
    21:00 +26°C° 0 mm 4 mps 686 mmHg 36%
    22:00 +25°C° 0 mm 4 mps 686 mmHg 40%
    23:00 +24°C° 0 mm 3 mps 685 mmHg 45%

    1 June, Monday

    Time Temperature Precipitation Wind Pressure Humidity
    00:00 +22°C° 0 mm 3 mps 685 mmHg 51%
    01:00 +22°C° 0 mm 3 mps 684 mmHg 56%
    02:00 +21°C° 0 mm 2 mps 684 mmHg 59%
    03:00 +20°C° 0 mm 2 mps 684 mmHg 63%
    04:00 +20°C° 0 mm 2 mps 683 mmHg 66%
    05:00 +20°C° 0 mm 3 mps 684 mmHg 64%
    06:00 +21°C° 0 mm 3 mps 684 mmHg 61%
    07:00 +21°C° 0 mm 3 mps 684 mmHg 58%
    08:00 +23°C° 0 mm 4 mps 684 mmHg 52%
    09:00 +26°C° 0 mm 6 mps 685 mmHg 45%
    10:00 +28°C° 0 mm 7 mps 685 mmHg 39%
    11:00 +29°C° 0 mm 7 mps 685 mmHg 36%
    12:00 +30°C° 0 mm 7 mps 685 mmHg 33%
    13:00 +32°C° 0 mm 7 mps 685 mmHg 31%
    14:00 +29°C° 0.4 mm 7 mps 684 mmHg 36%
    15:00 +28°C° 0.4 mm 7 mps 684 mmHg 42%
    16:00 +27°C° 0.4 mm 7 mps 683 mmHg 48%
    17:00 +26°C° 1.6 mm 7 mps 683 mmHg 50%
    18:00 +24°C° 1.6 mm 7 mps 683 mmHg 52%
    19:00 +23°C° 1.6 mm 7 mps 683 mmHg 54%
    20:00 +22°C° 0.1 mm 5 mps 683 mmHg 55%
    21:00 +21°C° 0.1 mm 3 mps 684 mmHg 56%
    22:00 +20°C° 0.1 mm 2 mps 684 mmHg 57%
    23:00 +20°C° 0 mm 2 mps 684 mmHg 57%

    2 June, Tuesday

    Time Temperature Precipitation Wind Pressure Humidity
    00:00 +19°C° 0 mm 2 mps 683 mmHg 57%
    01:00 +19°C° 0 mm 2 mps 683 mmHg 56%
    02:00 +18°C° 0 mm 2 mps 683 mmHg 55%
    03:00 +18°C° 0 mm 2 mps 683 mmHg 54%
    04:00 +17°C° 0 mm 2 mps 683 mmHg 53%
    05:00 +18°C° 0 mm 2 mps 683 mmHg 50%
    06:00 +18°C° 0 mm 2 mps 683 mmHg 47%
    07:00 +18°C° 0 mm 2 mps 683 mmHg 44%
    08:00 +20°C° 0 mm 3 mps 684 mmHg 41%
    09:00 +21°C° 0 mm 4 mps 684 mmHg 38%
    10:00 +23°C° 0 mm 6 mps 685 mmHg 35%
    11:00 +24°C° 0 mm 6 mps 685 mmHg 34%
    12:00 +26°C° 0 mm 7 mps 685 mmHg 33%
    13:00 +27°C° 0 mm 7 mps 685 mmHg 32%
    14:00 +27°C° 0 mm 7 mps 684 mmHg 33%
    15:00 +26°C° 0 mm 7 mps 684 mmHg 34%
    16:00 +26°C° 0 mm 7 mps 684 mmHg 35%
    17:00 +26°C° 0 mm 6 mps 684 mmHg 37%
    18:00 +24°C° 0 mm 6 mps 684 mmHg 38%
    19:00 +23°C° 0 mm 5 mps 683 mmHg 40%
    20:00 +23°C° 0 mm 4 mps 684 mmHg 43%
    21:00 +22°C° 0 mm 3 mps 684 mmHg 45%
    22:00 +21°C° 0 mm 2 mps 684 mmHg 47%
    23:00 +20°C° 0 mm 2 mps 684 mmHg 49%

    3 June, Wednesday

    Time Temperature Precipitation Wind Pressure Humidity
    00:00 +19°C° 0 mm 2 mps 683 mmHg 51%
    01:00 +19°C° 0 mm 2 mps 683 mmHg 53%
    02:00 +18°C° 0 mm 2 mps 683 mmHg 56%
    03:00 +18°C° 0 mm 2 mps 682 mmHg 59%
    04:00 +17°C° 0 mm 2 mps 682 mmHg 63%
    05:00 +18°C° 0 mm 2 mps 682 mmHg 61%
    06:00 +18°C° 0 mm 2 mps 682 mmHg 59%
    07:00 +19°C° 0 mm 2 mps 683 mmHg 57%
    08:00 +21°C° 0 mm 3 mps 683 mmHg 51%
    09:00 +23°C° 0 mm 4 mps 683 mmHg 44%
    10:00 +26°C° 0 mm 5 mps 684 mmHg 38%
    11:00 +27°C° 0 mm 5 mps 684 mmHg 36%
    12:00 +28°C° 0 mm 6 mps 684 mmHg 33%
    13:00 +29°C° 0 mm 7 mps 684 mmHg 31%
    14:00 +29°C° 0 mm 7 mps 683 mmHg 30%
    15:00 +30°C° 0 mm 7 mps 683 mmHg 30%
    16:00 +30°C° 0 mm 7 mps 683 mmHg 29%
    17:00 +29°C° 0 mm 7 mps 682 mmHg 31%
    18:00 +28°C° 0 mm 7 mps 682 mmHg 32%
    19:00 +27°C° 0 mm 7 mps 682 mmHg 34%
    20:00 +27°C° 0 mm 6 mps 682 mmHg 36%
    21:00 +26°C° 0 mm 5 mps 682 mmHg 38%
    22:00 +25°C° 0 mm 5 mps 683 mmHg 39%
    23:00 +25°C° 0 mm 4 mps 682 mmHg 41%
    Show more